Погода в Лаоаге

Филиппины     18°12′29″N   120°35′28″E
темп.,
°C
ветер,
м/с
пор.,
м/с
влажн.,
%
обл.,
%
осадки,
мм/ч
давл.,
гПа
погр.,
м
24 января, пн
пн2423:00+26св33765 0.1 1012280
02:00+26св33775 0.2 1011368
05:00+25св34765 0.3 1010317
08:00+26ссв67755 0.3 1011595
11:00+27с997352 0.0 1011698
14:00+27с1211770 0.0 1009576
17:00+27ссв1313785 0.0 1009625
20:00+26ссв1010795 0.0 1010472
25 января, вт
вт2523:00+26св77795 0.0 1011398
02:00+25всв45789 0.0 1010291
05:00+25всв44775 0.0 1009238
08:00+25всв44755 0.0 1011276
11:00+28ссз336790 0.0 1011398
14:00+29с88688 0.0 1007419
17:00+30св78644 0.0 1007249
20:00+26всв67735 0.0 1010328
26 января, ср
ср2623:00+25всв44765 0.0 1010218
02:00+25всв45755 0.0 1010219
05:00+25всв347325 0.0 1009198
08:00+25в4470100 0.0 1011245
11:00+29с345999 0.0 1011333
14:00+29св996545 0.0 1008466
17:00+29всв9106562 0.0 1008418
20:00+27всв7873100 0.0 1011529
27 января, чт
чт2723:00+26всв6774100 0.0 1011516
02:00+26св6773100 0.0 1010601
05:00+26св798199 0.1 1009406
08:00+26св9981100 0.2 1011425
11:00+26св9879100 0.0 1012467
14:00+26св988098 0.1 1009507
17:00+26св997890 0.1 1009522
20:00+26св567898 0.1 1011317
28 января, пт
пт2823:00+25св3382100 0.4 1011243
02:00+25всв2283100 1.0 1010185
05:00+25св2281100 0.7 1009201
08:00+26св348052 1.4 1011252
11:00+27ссв447998 0.3 1011391
14:00+26всв2284100 1.4 1008327
17:00+26ссв338578 1.1 1008313
20:00+26всв1284100 2.3 1010134